Volver al catálogo

SHIYAN 9

SY-9

ActivoCienciaGEO
NORAD 47851·PAYLOAD·🇨🇳 China

Lanzado Mar 11, 2021 desde Wenchang Space Launch Site

Loading…

TLE

ActualizadoSource: Space-Track

Época: Sep 14, 2026, 11:11 UTC

1 47851U 21019A   26257.46618280 -.00000239  00000-0  00000-0 0  9990
2 47851  16.3339 301.2796 0014906  22.3509 344.3967  1.00269311 25030

Sigue SHIYAN 9 en tiempo real con AllMySat

Download on the App Store